Location: Brno
(49.2000°N, 16.6330°E)
Time: 04:51:16
(UTC+01:00)

ISS - Visible Passes

Search period start: 09 December 2016 00:00
Search period end: 19 December 2016 00:00
Orbit: 401 x 410 km, 51.6° (Epoch: 09 December)

Date Brightness Start Highest point End Pass type
(mag) Time Alt. Az. Time Alt. Az. Time Alt. Az.
09 Dec -3.2 17:12:11 10° W 17:15:28 63° N 17:17:21 23° ENE visible
09 Dec -0.6 18:48:56 10° WNW 18:50:01 19° WNW 18:50:01 19° WNW visible
10 Dec -3.0 17:56:55 10° WNW 18:00:07 54° N 18:00:07 54° N visible
11 Dec -3.0 17:04:52 10° W 17:08:07 54° N 17:10:14 19° ENE visible
11 Dec -1.0 18:41:30 10° WNW 18:42:55 23° WNW 18:42:55 23° WNW visible
12 Dec -3.3 17:49:30 10° WNW 17:52:48 63° N 17:53:04 60° NE visible
13 Dec -3.1 16:57:28 10° WNW 17:00:43 55° N 17:03:16 15° E visible
13 Dec -1.5 18:34:02 10° WNW 18:35:57 31° W 18:35:57 31° W visible
14 Dec -3.4 17:42:00 10° WNW 17:45:19 88° NNE 17:46:14 45° ESE visible
14 Dec 0.3 19:18:51 10° W 19:18:55 10° W 19:18:55 10° W visible
15 Dec -3.3 16:49:58 10° WNW 16:53:16 68° NNE 16:56:34 10° E visible
15 Dec -1.8 18:26:35 10° W 18:29:19 34° SW 18:29:19 34° SW visible
16 Dec -2.7 17:34:27 10° WNW 17:37:42 55° SSW 17:39:52 19° SE visible
16 Dec 0.2 19:12:22 10° WSW 19:12:35 11° WSW 19:12:35 11° WSW visible
17 Dec -3.2 16:42:23 10° WNW 16:45:41 82° SSW 16:48:59 10° ESE visible
17 Dec -0.7 18:19:23 10° W 18:21:48 19° SW 18:23:22 14° S visible
18 Dec -1.4 17:26:59 10° W 17:29:55 30° SW 17:32:52 10° SSE visible
